Flag for Germany Weather past 2 weeks in Rathenow, Brandenburg, Germany

Now
64 °F

Passing clouds.


Feels Like: 64 °F
Forecast: 51 / 65 °F
Wind: 3 mph from Northeast

Location: Neuruppin


UV Index: 0 (Low)

Visibility: 6 mi


Pressure: 29.85 "Hg

Humidity: 50%

Dew point: 45 °F

Location of RathenowLocation

Historic Weather in Rathenow

°F

Rathenow temperature yesterday

Maximum temperature yesterday: 67 °F (at 4:00 PM)
Minimum temperature yesterday: 39 °F (at 6:00 AM)
Average temperature yesterday: 51 °F

Past Weeks' High & Low Weather Summary

 TemperatureHumidityPressure
High67 °F (Apr 19, 4:00 PM)98% (Apr 12, 6:00 AM)30.47 "Hg (Apr 12, 6:00 AM)
Low33 °F (Apr 16, 7:00 AM)31% (Apr 16, 1:00 PM)29.69 "Hg (Apr 14, 8:00 AM)
Average49 °F75%30.03 "Hg
* Reported Apr 5 6:00 PM — Apr 20 6:00 PM, Rathenow, Weather by CustomWeather, © 2014

Note: Actual official high and low records may vary slightly from our data, if they occured in-between our weather recording intervals... More about our weather records

Advertising

Historic Weather Conditions — Data for Previous 24 hours

 ConditionsComfort  
Time TempWeatherWind HumidityBarometerVisibility
6:00 PM
Apr 20
65 °FScattered clouds.5 mph49%29.86 "Hg6 mi
4:00 PM64 °FScattered clouds.7 mph50%29.89 "Hg6 mi
3:00 PM66 °FPassing clouds.7 mph50%29.90 "Hg6 mi
2:00 PM65 °FPartly sunny.7 mph56%29.91 "Hg6 mi
1:00 PM63 °FPartly sunny.8 mph61%29.92 "Hg6 mi
12:00 PM62 °FOvercast.7 mph64%29.93 "Hg6 mi
11:00 AM58 °FOvercast.5 mph71%29.95 "Hg6 mi
10:00 AM56 °FOvercast.5 mph73%29.95 "Hg6 mi
9:00 AM54 °FOvercast.2 mph80%29.96 "Hg6 mi
8:00 AM52 °FSunny.5 mph83%29.95 "Hg6 mi
7:00 AM49 °FSunny.5 mph87%29.95 "Hg6 mi
6:00 AM49 °FSunny.5 mph86%29.94 "Hg6 mi
5:00 AM49 °FClear.3 mph85%29.96 "Hg6 mi
4:00 AM50 °FClear.3 mph84%29.97 "Hg6 mi
3:00 AM50 °FClear.5 mph85%29.97 "Hg6 mi
2:00 AM51 °FClear.6 mph84%29.99 "Hg7 mi
1:00 AM51 °FPassing clouds.6 mph82%30.01 "Hg7 mi
12:00 AM52 °FPassing clouds.5 mph80%30.01 "Hg6 mi
10:00 PM
Apr 19
55 °FClear.5 mph75%30.02 "Hg6 mi
9:00 PM57 °FClear.6 mph72%30.02 "Hg6 mi
8:00 PM60 °FSunny.6 mph66%30.01 "Hg6 mi
7:00 PM63 °FPassing clouds.7 mph60%30.01 "Hg6 mi
Weather by CustomWeather, © 2014

See weather overview